Regional Weather Roundup
Issued by NWS

Home | Current Version | Previous Version | Graphics & Text | Print | Product List | Glossary Off
Versions: 1 2 3 4 5 6 7 8 9 10 11 12 13 14 15 16 17 18 19 20 21 22 23 24 25 26 27 28 29 30 31 32 33 34 35 36 37 38 39 40 41 42 43 44 45 46 47 48 49 50

000
ASUS43 KDMX 301306
RWRIA

WEATHER ROUNDUP FOR IOWA
NATIONAL WEATHER SERVICE DES MOINES IA
800 AM CDT THU MAR 30 2017

NOTE: "FAIR" INDICATES FEW OR NO CLOUDS BELOW 12,000 FEET WITH NO
SIGNIFICANT WEATHER AND/OR OBSTRUCTIONS TO VISIBILITY.

* - THESE STATIONS ARE NOT NWS STATIONS...THUS NOT UNDER NWS
QUALITY CONTROL.  THEY ALSO DO NOT REPORT WEATHER SUCH
AS PRECIPITATION OR FOG.

IAZ001>003-012>014-020>022-031>034-043>046-301400-
   NORTHWEST IOWA

CITY           SKY/WX    TMP DP  RH WIND       PRES   REMARKS
CARROLL *      CLOUDY    39  39 100 NE17      29.75R FOG     WCI  30
CHEROKEE *     CLOUDY    37  37 100 NE12      29.81R WCI  30
DENISON *      MIX PCPN  39  39 100 NE15      29.76R WCI  31
LE MARS *      CLOUDY    39  37  93 NE13G20   29.83R WCI  32
ORANGE CITY *  CLOUDY    37  37 100 NE12G18   29.82S WCI  30
SHELDON *      CLOUDY    37  36  93 NE17      29.82R FOG     WCI  28
SIOUX CITY     CLOUDY    39  38  96 NE15G21   29.81R WCI  31
SPENCER        CLOUDY    37  36  96 NE21      29.82R WCI  26
STORM LAKE *   CLOUDY    37  36  93 NE23      29.78R FOG     WCI  26
$$

IAZ055>058-069>071-079>083-090>094-301400-
   SOUTHWEST IOWA

CITY           SKY/WX    TMP DP  RH WIND       PRES   REMARKS
ATLANTIC *     CLOUDY    41  41 100 NE16G26   29.68F FOG
AUDUBON *      DRIZZLE   39  37  93 NE12      29.73R WCI  32
CLARINDA *     CLOUDY    43  43 100 NE17G23   29.67R FOG
COUNCIL BLFS * CLOUDY    41  41 100 NE16G23   29.70R FOG
CRESTON *      FOG       41  41 100 NE20      29.66R VSB 1/4
HARLAN  *      CLOUDY    41  39  93 NE18      29.74S FOG
LAMONI         CLOUDY    44  43  96 NE13      29.61R FOG
RED OAK *      CLOUDY    43  43 100 NE16G25   29.68R FOG
SHENANDOAH *   CLOUDY    43  43 100 NE18G26   29.67R FOG
$$

IAZ047>049-059>061-072>074-084-301400-
   CENTRAL IOWA

CITY           SKY/WX    TMP DP  RH WIND       PRES   REMARKS
AMES           CLOUDY    41  41 100 NE14G23   29.73R FOG
ANKENY *       CLOUDY    41  41 100 NE12      29.71R
BOONE *        MIX PCPN  41  41 100 NE14G21   29.72R VSB 3/4
CHARITON *     CLOUDY    43  43 100 NE13      29.63R
DES MOINES     DRIZZLE   43  41  93 NE14      29.68S FOG
GRINNELL*      CLOUDY    41  40  95 NE16      29.68F
MARSHALLTOWN   CLOUDY    41  40  96 NE21      29.69F
NEWTON *       CLOUDY    41  41 100 NE15      29.67S
PELLA *        CLOUDY    43  42  97 NE7       29.68R
PERRY *        CLOUDY    41  40  97 NE10      29.72S FOG
$$

IAZ004>006-015-016-023>025-035-036-301400-
   NORTH CENTRAL IOWA

CITY           SKY/WX    TMP DP  RH WIND       PRES   REMARKS
ALGONA *       CLOUDY    37  37 100 NE16G22   29.80R WCI  28
CLARION *      CLOUDY    37  37 100 NE21      29.77R FOG     WCI  27
ESTHERVILLE    CLOUDY    36  36 100 NE20      29.82R WCI  25
FORT DODGE *   CLOUDY    37  34  87 NE13      29.78R WCI  29
MASON CITY     CLOUDY    37  35  92 NE16      29.82R FOG     WCI  28
FOREST CITY *  CLOUDY    36  36 100 NE10G16   29.81R FOG     WCI  28
WEBSTER CITY * CLOUDY    39  37  93 NE15G23   29.74R FOG     WCI  31
IOWA FALLS *   DRIZZLE   40  38  95 NE14G22   29.76R WCI  32
$$

IAZ007>011-017>019-026>030-037>042-050>054-066-301400-
   NORTHEAST IOWA

CITY           SKY/WX    TMP DP  RH WIND       PRES   REMARKS
CEDAR RAPIDS   CLOUDY    42  42 100 E15       29.69F
CHARLES CITY * CLOUDY    37  37 100 NE17G25   29.79S FOG     WCI  28
CLINTON *      LGT RAIN  43  42  97 NE14      29.72F
DECORAH *      CLOUDY    37  37 100 E12G18    29.80R FOG     WCI  30
DUBUQUE        RAIN      39  38  96 NE18      29.75S FOG     WCI  30
MONTICELLO *   LGT RAIN  41  39  93 NE12G18   29.72S
OELWEIN *      MIX PCPN  39  39 100 E14G21    29.77R WCI  31
WATERLOO       CLOUDY    40  37  89 NE16      29.75S WCI  31
$$

IAZ064-065-067-068-078-301400-
   EAST CENTRAL IOWA

CITY           SKY/WX    TMP DP  RH WIND       PRES   REMARKS
DAVENPORT      LGT RAIN  44  42  93 E16       29.69F
IOWA CITY      CLOUDY    44  41  89 NE9       29.69F
MUSCATINE *    LGT RAIN  45  43  93 N7G16     29.67F
QUAD CITIES    CLOUDY    45  42  89 E14       29.68S
$$

IAZ062-063-075>077-085>089-095>099-301400-
   SOUTHEAST IOWA

CITY           SKY/WX    TMP DP  RH WIND       PRES   REMARKS
BURLINGTON     CLOUDY    46  46 100 E13       29.61F
FAIRFIELD *    CLOUDY    45  43  93 NE12G22   29.63S FOG
FORT MADISON * CLOUDY    46  45  93 NE12      29.61F FOG
KEOKUK *       CLOUDY    46  46 100 NE10      29.58F FOG
OSKALOOSA *    CLOUDY    42  41  96 NE14      29.65R FOG
CENTERVILLE *  CLOUDY    45  45 100 NE6       29.62R FOG
OTTUMWA        CLOUDY    44  44 100 NE15      29.63S FOG
WASHINGTON *   CLOUDY    45  45 100 E13       29.66S
$$

ABBREVIATIONS USED IN REMARKS
   TC - TEMPERATURES IN CELSIUS
  WCI - WIND CHILL INDEX
   HX - HEAT INDEX
  VSB - VISIBILITY
$$




USA.gov is the U.S. government's official web portal to all federal, state and local government web resources and services.